EW8618 Weather Reports


time (UTC)temp
C
wind
direction
speed
KPH
gust
KPH
rain 1hr
cm
rain 24hr
cm
rain mn
cm
humidity
%
barometer
mb
20260507033011 16 69 0.0 0.0 0.00 0.00 0.00 80 1014.2
20260507031512 16 98 0.0 0.0 0.00 0.00 0.00 78 1013.9
20260507024514 17 125 0.0 0.0 0.00 0.00 0.00 73 1013.5
20260507023009 18 124 0.0 0.0 0.00 0.00 0.00 71 1013.4
20260507021509 19 127 0.0 0.0 0.00 0.00 0.00 68 1013.3
20260507020008 20 318 0.0 0.0 0.00 0.00 0.00 64 1013.3
20260507014512 21 318 0.0 0.0 0.00 0.00 0.00 62 1013.2
20260507013008 21 5 0.0 0.0 0.00 0.00 0.00 61 1013.2
20260507011512 21 298 0.0 0.0 0.00 0.00 0.00 60 1013.1
20260507010012 22 30 0.0 0.0 0.00 0.00 0.00 59 1013.1
20260507004506 21 83 0.0 0.0 0.00 0.00 0.00 60 1013.1
20260507003013 21 293 1.6 0.0 0.00 0.00 0.00 60 1013.0
20260507001504 21 296 0.0 0.0 0.00 0.00 0.00 62 1013.0
20260507000004 21 355 1.6 0.0 0.00 0.00 0.00 62 1013.0
20260506234503 21 315 1.6 0.0 0.00 0.00 0.00 61 1013.0
20260506233002 22 257 0.0 0.0 0.00 0.00 0.00 61 1013.1
20260506231503 22 278 1.6 0.0 0.00 0.00 0.00 59 1013.3
20260506230059 22 98 0.0 0.0 0.00 0.00 0.00 58 1013.3
20260506224558 22 87 0.0 0.0 0.00 0.00 0.00 57 1013.4
20260506223100 22 34 0.0 0.0 0.00 0.00 0.00 57 1013.7
20260506221554 22 346 0.0 0.0 0.00 0.00 0.00 57 1013.8
20260506220052 22 109 0.0 0.0 0.00 0.00 0.00 58 1014.1
20260506214550 21 51 0.0 0.0 0.00 0.00 0.00 58 1014.3
20260506213046 21 296 0.0 0.0 0.00 0.00 0.00 60 1014.4
20260506211551 21 329 1.6 0.0 0.00 0.00 0.00 60 1014.6
20260506210043 21 5 3.2 0.0 0.00 0.00 0.00 61 1014.8
20260506204541 21 42 1.6 0.0 0.00 0.00 0.00 62 1014.9
20260506203039 20 101 1.6 0.0 0.00 0.00 0.00 62 1014.9
20260506201537 20 60 1.6 0.0 0.00 0.00 0.00 63 1015.2
20260506200034 20 40 1.6 0.0 0.00 0.00 0.00 65 1015.2
20260506194632 20 119 0.0 0.0 0.00 0.00 0.00 65 1015.4
20260506193033 19 299 0.0 0.0 0.00 0.00 0.00 67 1015.5
20260506191526 18 218 1.6 0.0 0.00 0.00 0.00 71 1015.7
20260506190023 17 267 0.0 0.0 0.00 0.00 0.00 70 1015.7
20260506184525 17 37 1.6 0.0 0.00 0.00 0.00 72 1015.9
20260506183019 17 110 0.0 0.0 0.00 0.00 0.00 71 1015.9
20260506181518 17 105 0.0 0.0 0.00 0.00 0.00 72 1016.0
20260506180017 17 154 0.0 0.0 0.00 0.00 0.00 73 1016.1
20260506174513 16 217 0.0 0.0 0.00 0.00 0.00 75 1016.1
20260506173009 15 327 0.0 0.0 0.00 0.00 0.00 79 1016.1
20260506171505 14 183 0.0 0.0 0.00 0.00 0.00 81 1016.2
20260506170008 14 180 0.0 0.0 0.00 0.00 0.00 81 1016.3
20260506164601 13 265 0.0 0.0 0.00 0.00 0.00 83 1016.3
20260506163103 13 244 0.0 0.0 0.00 0.00 0.00 84 1016.3
20260506161610 13 290 0.0 0.0 0.00 0.00 0.00 85 1016.4
20260506154600 12 253 0.0 0.0 0.00 0.00 0.00 87 1016.3
20260506153051 12 225 0.0 0.0 0.00 0.00 0.00 87 1016.3
20260506151548 12 188 0.0 0.0 0.00 0.00 0.00 88 1016.3
20260506150056 12 182 0.0 0.0 0.00 0.00 0.00 92 1016.3
20260506144559 12 144 0.0 0.0 0.00 0.00 0.00 90 1016.3
20260506143050 12 142 0.0 0.0 0.00 0.00 0.00 89 1016.2
20260506141537 12 72 0.0 0.0 0.00 0.00 0.00 90 1016.2
20260506140053 11 72 0.0 0.0 0.00 0.00 0.00 90 1016.1
20260506134534 11 40 0.0 0.0 0.00 0.00 0.00 90 1015.8
20260506131535 11 261 0.0 0.0 0.00 0.00 0.00 90 1015.4
20260506130025 11 267 0.0 0.0 0.00 0.00 0.00 90 1015.3
20260506124524 11 294 0.0 0.0 0.00 0.00 0.00 89 1015.2
20260506123035 11 294 0.0 0.0 0.00 0.00 0.00 88 1015.2
20260506121521 11 294 0.0 0.0 0.00 0.00 0.00 88 1015.2
20260506120029 11 294 0.0 0.0 0.00 0.00 0.00 89 1015.0
20260506114521 11 294 0.0 0.0 0.00 0.00 0.00 88 1014.9
20260506113018 11 294 0.0 0.0 0.00 0.00 0.00 88 1014.8
20260506111517 12 294 0.0 0.0 0.00 0.00 0.00 88 1014.8
20260506110016 12 294 0.0 0.0 0.00 0.00 0.00 88 1014.7
20260506104523 12 294 0.0 0.0 0.00 0.00 0.00 88 1014.6
20260506103016 12 294 0.0 0.0 0.00 0.00 0.00 87 1014.7
20260506101515 12 294 0.0 0.0 0.00 0.00 0.00 87 1014.7
20260506100018 12 294 0.0 0.0 0.00 0.00 0.00 87 1014.7
20260506094514 12 294 0.0 0.0 0.00 0.00 0.00 87 1014.7
20260506093012 12 294 0.0 0.0 0.00 0.00 0.00 87 1014.8
20260506091511 12 294 0.0 0.0 0.00 0.00 0.00 86 1014.8
20260506090010 12 294 0.0 0.0 0.00 0.00 0.00 86 1014.7
20260506084510 12 294 0.0 0.0 0.00 0.00 0.00 86 1014.7
20260506083010 12 294 0.0 0.0 0.00 0.00 0.00 86 1014.7
20260506081513 12 294 0.0 0.0 0.00 0.00 0.00 86 1014.8
20260506073004 12 294 0.0 0.0 0.00 0.00 0.00 84 1014.4
20260506071503 12 294 0.0 0.0 0.00 0.00 0.00 84 1014.4
20260506061557 12 294 0.0 0.0 0.00 0.00 0.00 83 1013.9
20260506044553 12 294 0.0 0.0 0.00 0.00 0.00 81 1013.3
20260506043049 12 293 0.0 0.0 0.00 0.00 0.00 81 1013.3
20260506041548 12 293 0.0 0.0 0.00 0.00 0.00 81 1013.0
20260506040045 12 296 1.6 0.0 0.00 0.00 0.00 81 1012.8
20260506034602 12 284 0.0 0.0 0.00 0.00 0.00 81 1012.6